| time (UTC) | temp F | wind direction | speed MPH | gust MPH | rain 1hr in | rain 24hr in | rain mn in | humidity % | barometer mb |
| 20260507062648 | 50 | 315 | 0.0 | 0.0 | 0.00 | 0.02 | 0.00 | 81 | 5010.7 |
| 20260507062148 | 50 | 337 | 0.0 | 0.0 | 0.00 | 0.02 | 0.00 | 82 | 5010.6 |
| 20260507061648 | 50 | 315 | 0.0 | 0.0 | 0.00 | 0.02 | 0.00 | 82 | 5010.6 |
| 20260507061148 | 50 | 315 | 0.0 | 0.0 | 0.00 | 0.02 | 0.00 | 83 | 5010.6 |
| 20260507060648 | 49 | 292 | 0.0 | 0.0 | 0.00 | 0.02 | 0.00 | 83 | 5010.6 |
| 20260507060148 | 49 | 292 | 0.0 | 0.0 | 0.00 | 0.02 | 0.00 | 84 | 5010.6 |
| 20260507055648 | 49 | 292 | 0.0 | 0.0 | 0.00 | 0.02 | 0.00 | 84 | 5010.5 |
| 20260507055148 | 48 | 292 | 0.0 | 0.0 | 0.00 | 0.02 | 0.00 | 84 | 5010.5 |
| 20260507054648 | 48 | 292 | 0.0 | 0.0 | 0.00 | 0.02 | 0.00 | 84 | 5010.4 |
| 20260507054148 | 48 | 292 | 0.0 | 0.0 | 0.00 | 0.02 | 0.00 | 84 | 5010.4 |
| 20260507053648 | 48 | 292 | 0.0 | 0.0 | 0.00 | 0.02 | 0.00 | 84 | 5010.4 |
| 20260507053148 | 48 | 292 | 0.0 | 0.0 | 0.00 | 0.02 | 0.00 | 84 | 5010.2 |
| 20260507052648 | 48 | 292 | 0.0 | 0.0 | 0.00 | 0.02 | 0.00 | 84 | 5010.3 |
| 20260507052148 | 48 | 292 | 0.0 | 0.0 | 0.00 | 0.02 | 0.00 | 84 | 5010.2 |
| 20260507051648 | 48 | 270 | 0.0 | 0.0 | 0.00 | 0.02 | 0.00 | 84 | 5010.4 |
| 20260507051148 | 48 | 270 | 0.0 | 0.0 | 0.00 | 0.02 | 0.00 | 84 | 5010.3 |
| 20260507050648 | 48 | 292 | 0.0 | 0.0 | 0.00 | 0.02 | 0.00 | 84 | 5010.2 |
| 20260507050148 | 48 | 315 | 0.0 | 0.0 | 0.00 | 0.04 | 0.00 | 84 | 5010.0 |
| 20260507045648 | 47 | 292 | 0.0 | 0.0 | 0.00 | 0.04 | 0.00 | 84 | 5010.0 |
| 20260507045148 | 47 | 292 | 0.0 | 0.0 | 0.00 | 0.04 | 0.00 | 84 | 5009.9 |
| 20260507044648 | 47 | 315 | 0.0 | 0.0 | 0.00 | 0.04 | 0.00 | 84 | 5009.8 |
| 20260507044148 | 47 | 315 | 0.0 | 0.0 | 0.00 | 0.04 | 0.00 | 84 | 5009.8 |
| 20260507043648 | 47 | 315 | 0.0 | 0.0 | 0.00 | 0.04 | 0.00 | 84 | 5009.7 |
| 20260507043148 | 47 | 315 | 0.0 | 0.0 | 0.00 | 0.04 | 0.00 | 84 | 5009.8 |
| 20260507042648 | 47 | 315 | 0.0 | 0.0 | 0.00 | 0.04 | 0.00 | 84 | 5009.6 |
| 20260507042148 | 47 | 315 | 0.0 | 0.0 | 0.00 | 0.04 | 0.00 | 84 | 5009.6 |
| 20260507041648 | 47 | 315 | 0.0 | 0.0 | 0.00 | 0.04 | 0.00 | 84 | 5009.5 |
| 20260507041148 | 47 | 315 | 0.0 | 0.0 | 0.00 | 0.04 | 0.00 | 84 | 5009.5 |
| 20260507040648 | 47 | 315 | 0.0 | 0.0 | 0.00 | 0.04 | 0.00 | 84 | 5009.5 |
| 20260507040148 | 47 | 315 | 0.0 | 0.0 | 0.00 | 0.04 | 0.00 | 84 | 5009.3 |
| 20260507035648 | 47 | 315 | 0.0 | 0.0 | 0.00 | 0.04 | 0.00 | 84 | 5009.4 |
| 20260507035148 | 47 | 315 | 0.0 | 0.0 | 0.00 | 0.04 | 0.00 | 84 | 5009.4 |
| 20260507034648 | 47 | 315 | 0.0 | 0.0 | 0.00 | 0.04 | 0.00 | 84 | 5009.4 |
| 20260507034148 | 47 | 315 | 0.0 | 0.0 | 0.00 | 0.04 | 0.00 | 84 | 5009.4 |
| 20260507033648 | 47 | 315 | 0.0 | 0.0 | 0.00 | 0.04 | 0.00 | 84 | 5009.3 |
| 20260507033148 | 47 | 315 | 0.0 | 0.0 | 0.00 | 0.04 | 0.00 | 84 | 5009.2 |
| 20260507032648 | 47 | 315 | 0.0 | 0.0 | 0.00 | 0.04 | 0.00 | 84 | 5009.2 |
| 20260507032148 | 47 | 315 | 0.0 | 0.0 | 0.00 | 0.04 | 0.00 | 84 | 5009.1 |
| 20260507031648 | 47 | 315 | 0.0 | 0.0 | 0.00 | 0.04 | 0.00 | 84 | 5009.0 |
| 20260507031148 | 47 | 315 | 0.0 | 0.0 | 0.00 | 0.04 | 0.00 | 84 | 5009.1 |
| 20260507030648 | 47 | 315 | 0.0 | 0.0 | 0.00 | 0.04 | 0.00 | 83 | 5009.1 |
| 20260507030148 | 47 | 315 | 0.0 | 0.0 | 0.00 | 0.04 | 0.00 | 84 | 5009.1 |
| 20260507025648 | 47 | 315 | 0.0 | 0.0 | 0.00 | 0.04 | 0.00 | 84 | 5008.9 |
| 20260507025148 | 47 | 315 | 0.0 | 0.0 | 0.00 | 0.04 | 0.00 | 83 | 5009.0 |
| 20260507024648 | 47 | 315 | 0.0 | 0.0 | 0.00 | 0.04 | 0.00 | 83 | 5009.0 |
| 20260507024148 | 47 | 315 | 0.0 | 0.0 | 0.00 | 0.04 | 0.00 | 83 | 5008.9 |
| 20260507023648 | 47 | 315 | 0.0 | 0.0 | 0.00 | 0.04 | 0.00 | 83 | 5009.2 |
| 20260507023148 | 47 | 315 | 0.0 | 0.0 | 0.00 | 0.04 | 0.00 | 83 | 5009.2 |
| 20260507022648 | 47 | 315 | 0.0 | 0.0 | 0.00 | 0.04 | 0.00 | 83 | 5009.1 |
| 20260507022156 | 47 | 315 | 0.0 | 0.0 | 0.00 | 0.04 | 0.00 | 83 | 5009.0 |
| 20260507022148 | 47 | 315 | 0.0 | 0.0 | 0.00 | 0.04 | 0.00 | 83 | 5009.0 |
| 20260507021648 | 47 | 337 | 0.0 | 0.0 | 0.00 | 0.04 | 0.00 | 83 | 5009.0 |
| 20260507021148 | 47 | 315 | 0.0 | 0.0 | 0.00 | 0.04 | 0.00 | 82 | 5008.9 |
| 20260507020648 | 47 | 315 | 0.0 | 0.0 | 0.00 | 0.04 | 0.00 | 82 | 5008.9 |
| 20260507020148 | 47 | 315 | 0.0 | 0.0 | 0.00 | 0.04 | 0.00 | 82 | 5008.9 |
| 20260507015648 | 47 | 315 | 0.0 | 0.0 | 0.00 | 0.04 | 0.00 | 82 | 5008.9 |
| 20260507015152 | 47 | 315 | 0.0 | 0.0 | 0.00 | 0.04 | 0.00 | 82 | 5008.8 |
| 20260507015148 | 47 | 315 | 0.0 | 0.0 | 0.00 | 0.04 | 0.00 | 82 | 5008.8 |
| 20260507014648 | 47 | 315 | 0.0 | 0.0 | 0.00 | 0.04 | 0.00 | 82 | 5008.7 |
| 20260507014148 | 47 | 292 | 0.0 | 0.0 | 0.00 | 0.04 | 0.00 | 82 | 5008.7 |
| 20260507013648 | 47 | 337 | 0.0 | 0.0 | 0.00 | 0.04 | 0.00 | 82 | 5008.7 |
| 20260507013148 | 47 | 315 | 0.0 | 0.0 | 0.00 | 0.04 | 0.00 | 82 | 5008.7 |
| 20260507012648 | 47 | 292 | 0.0 | 0.0 | 0.00 | 0.04 | 0.00 | 82 | 5008.7 |
| 20260507012155 | 47 | 315 | 0.0 | 0.0 | 0.00 | 0.04 | 0.00 | 82 | 5008.6 |
| 20260507012148 | 47 | 315 | 0.0 | 0.0 | 0.00 | 0.04 | 0.00 | 82 | 5008.6 |
| 20260507011648 | 48 | 337 | 0.0 | 0.0 | 0.00 | 0.04 | 0.00 | 82 | 5008.6 |
| 20260507011148 | 47 | 315 | 0.0 | 0.0 | 0.00 | 0.04 | 0.00 | 81 | 5008.8 |
| 20260507010648 | 47 | 315 | 0.0 | 0.0 | 0.00 | 0.04 | 0.00 | 81 | 5008.8 |
| 20260507010148 | 48 | 292 | 0.0 | 0.0 | 0.00 | 0.04 | 0.00 | 81 | 5008.7 |
| 20260507005648 | 48 | 315 | 0.0 | 0.0 | 0.00 | 0.04 | 0.00 | 81 | 5008.7 |
| 20260507005152 | 48 | 315 | 0.0 | 0.0 | 0.00 | 0.04 | 0.00 | 81 | 5008.6 |
| 20260507005148 | 48 | 315 | 0.0 | 0.0 | 0.00 | 0.04 | 0.00 | 81 | 5008.6 |
| 20260507004648 | 48 | 315 | 0.0 | 0.0 | 0.00 | 0.04 | 0.00 | 81 | 5008.6 |
| 20260507004148 | 48 | 292 | 0.0 | 0.0 | 0.00 | 0.04 | 0.00 | 81 | 5008.7 |
| 20260507003653 | 48 | 315 | 0.0 | 0.0 | 0.00 | 0.04 | 0.00 | 81 | 5008.6 |
| 20260507003648 | 48 | 315 | 0.0 | 0.0 | 0.00 | 0.04 | 0.00 | 81 | 5008.6 |
| 20260507003148 | 48 | 292 | 0.0 | 0.0 | 0.00 | 0.04 | 0.00 | 81 | 5008.5 |
| 20260507002648 | 48 | 315 | 0.0 | 0.0 | 0.00 | 0.04 | 0.00 | 81 | 5008.4 |
| 20260507002148 | 48 | 315 | 0.0 | 0.0 | 0.00 | 0.04 | 0.00 | 81 | 5008.4 |
| 20260507001648 | 48 | 315 | 0.0 | 0.0 | 0.00 | 0.04 | 0.00 | 81 | 5008.5 |
| 20260507001148 | 48 | 292 | 0.0 | 0.0 | 0.00 | 0.04 | 0.00 | 81 | 5008.4 |
| 20260507000648 | 48 | 337 | 0.0 | 0.0 | 0.00 | 0.04 | 0.00 | 81 | 5008.3 |
| 20260507000148 | 48 | 292 | 0.0 | 0.0 | 0.00 | 0.04 | 0.00 | 81 | 5008.2 |
| 20260506235648 | 48 | 315 | 0.0 | 0.0 | 0.00 | 0.04 | 0.00 | 81 | 5008.2 |
| 20260506235148 | 48 | 337 | 0.0 | 0.0 | 0.00 | 0.04 | 0.00 | 81 | 5008.4 |
| 20260506234648 | 48 | 315 | 0.0 | 0.0 | 0.00 | 0.04 | 0.00 | 81 | 5008.2 |
| 20260506234148 | 48 | 315 | 0.0 | 0.0 | 0.00 | 0.04 | 0.00 | 81 | 5008.3 |
| 20260506233654 | 48 | 315 | 0.0 | 0.0 | 0.00 | 0.04 | 0.00 | 81 | 5008.2 |
| 20260506233648 | 48 | 315 | 0.0 | 0.0 | 0.00 | 0.04 | 0.00 | 81 | 5008.2 |
| 20260506233148 | 48 | 315 | 0.0 | 0.0 | 0.00 | 0.04 | 0.00 | 81 | 5008.1 |
| 20260506232648 | 48 | 337 | 0.0 | 0.0 | 0.00 | 0.04 | 0.00 | 81 | 5008.2 |
| 20260506232148 | 48 | 315 | 0.0 | 0.0 | 0.00 | 0.04 | 0.00 | 81 | 5008.3 |
| 20260506231648 | 48 | 315 | 0.0 | 0.0 | 0.00 | 0.04 | 0.00 | 81 | 5008.3 |
| 20260506231148 | 48 | 315 | 0.0 | 0.0 | 0.00 | 0.04 | 0.00 | 81 | 5008.2 |
| 20260506230648 | 48 | 337 | 0.0 | 0.0 | 0.00 | 0.04 | 0.00 | 80 | 5008.3 |
| 20260506230148 | 48 | 337 | 0.0 | 0.0 | 0.00 | 0.04 | 0.00 | 80 | 5008.2 |
| 20260506225648 | 48 | 337 | 0.0 | 0.0 | 0.00 | 0.04 | 0.00 | 80 | 5008.3 |
| 20260506225153 | 48 | 315 | 0.0 | 0.0 | 0.00 | 0.04 | 0.00 | 80 | 5008.2 |
| 20260506225149 | 48 | 315 | 0.0 | 0.0 | 0.00 | 0.04 | 0.00 | 80 | 5008.2 |
| 20260506224648 | 48 | 337 | 0.0 | 0.0 | 0.00 | 0.04 | 0.00 | 79 | 5008.1 |
| 20260506224148 | 49 | 337 | 0.0 | 0.0 | 0.00 | 0.04 | 0.00 | 79 | 5008.1 |
| 20260506223649 | 49 | 337 | 0.0 | 0.0 | 0.00 | 0.04 | 0.00 | 79 | 5008.1 |
| 20260506223149 | 49 | 337 | 0.0 | 0.0 | 0.00 | 0.04 | 0.00 | 79 | 5008.1 |
| 20260506222649 | 49 | 337 | 0.0 | 0.0 | 0.00 | 0.04 | 0.00 | 79 | 5008.1 |
| 20260506222149 | 49 | 337 | 0.0 | 0.0 | 0.00 | 0.04 | 0.00 | 79 | 5008.0 |
| 20260506221649 | 49 | 0 | 0.0 | 0.0 | 0.00 | 0.04 | 0.00 | 79 | 5007.9 |
| 20260506221149 | 49 | 337 | 0.0 | 0.0 | 0.00 | 0.04 | 0.00 | 79 | 5007.8 |
| 20260506220649 | 49 | 337 | 0.0 | 0.0 | 0.00 | 0.04 | 0.00 | 79 | 5007.7 |
| 20260506220149 | 49 | 337 | 0.0 | 0.0 | 0.00 | 0.04 | 0.00 | 78 | 5007.8 |
| 20260506215649 | 49 | 337 | 0.0 | 0.0 | 0.00 | 0.04 | 0.00 | 78 | 5007.7 |
| 20260506215149 | 49 | 315 | 0.0 | 0.0 | 0.00 | 0.04 | 0.00 | 78 | 5007.7 |
| 20260506214649 | 49 | 315 | 0.0 | 0.0 | 0.00 | 0.04 | 0.00 | 78 | 5007.5 |
| 20260506214149 | 49 | 315 | 0.0 | 0.0 | 0.00 | 0.04 | 0.00 | 78 | 5007.5 |
| 20260506213649 | 49 | 337 | 0.0 | 0.0 | 0.00 | 0.04 | 0.00 | 78 | 5007.5 |
| 20260506213149 | 49 | 337 | 0.0 | 0.0 | 0.00 | 0.04 | 0.00 | 78 | 5007.6 |
| 20260506212649 | 49 | 337 | 0.0 | 0.0 | 0.00 | 0.04 | 0.00 | 78 | 5007.6 |
| 20260506212149 | 49 | 337 | 0.0 | 0.0 | 0.00 | 0.04 | 0.00 | 78 | 5007.4 |
| 20260506211649 | 49 | 337 | 0.0 | 0.0 | 0.00 | 0.04 | 0.00 | 78 | 5007.2 |
| 20260506211149 | 49 | 315 | 0.0 | 0.0 | 0.00 | 0.04 | 0.00 | 77 | 5007.3 |
| 20260506210649 | 49 | 315 | 0.0 | 0.0 | 0.00 | 0.04 | 0.00 | 77 | 5007.3 |
| 20260506210149 | 49 | 315 | 0.0 | 0.0 | 0.00 | 0.04 | 0.00 | 77 | 5007.3 |
| 20260506205649 | 49 | 337 | 0.0 | 0.0 | 0.00 | 0.04 | 0.00 | 77 | 5007.2 |
| 20260506205149 | 49 | 292 | 0.0 | 0.0 | 0.00 | 0.04 | 0.00 | 77 | 5007.2 |
| 20260506204649 | 50 | 337 | 0.0 | 0.0 | 0.00 | 0.04 | 0.00 | 76 | 5007.1 |
| 20260506204149 | 50 | 337 | 0.0 | 0.0 | 0.00 | 0.04 | 0.00 | 76 | 5007.1 |
| 20260506203649 | 50 | 337 | 0.0 | 0.0 | 0.00 | 0.04 | 0.00 | 76 | 5007.1 |
| 20260506203149 | 50 | 337 | 0.0 | 0.0 | 0.00 | 0.04 | 0.00 | 76 | 5007.1 |
| 20260506202649 | 50 | 0 | 0.0 | 0.0 | 0.00 | 0.04 | 0.00 | 76 | 5007.0 |
| 20260506202149 | 50 | 337 | 0.0 | 0.0 | 0.00 | 0.04 | 0.00 | 76 | 5007.0 |
| 20260506201649 | 50 | 0 | 0.0 | 0.0 | 0.00 | 0.04 | 0.00 | 76 | 5006.9 |
| 20260506201149 | 50 | 315 | 0.0 | 0.0 | 0.00 | 0.04 | 0.00 | 77 | 5007.0 |
| 20260506200659 | 50 | 337 | 0.0 | 0.0 | 0.00 | 0.04 | 0.00 | 77 | 5006.9 |
| 20260506200649 | 50 | 337 | 0.0 | 0.0 | 0.00 | 0.04 | 0.00 | 77 | 5006.9 |
| 20260506200149 | 50 | 337 | 0.0 | 0.0 | 0.00 | 0.04 | 0.00 | 77 | 5006.8 |
| 20260506195649 | 50 | 337 | 0.0 | 0.0 | 0.00 | 0.04 | 0.00 | 77 | 5006.7 |
| 20260506195154 | 51 | 337 | 0.0 | 0.0 | 0.00 | 0.04 | 0.00 | 78 | 5006.7 |
| 20260506195149 | 51 | 337 | 0.0 | 0.0 | 0.00 | 0.04 | 0.00 | 78 | 5006.7 |
| 20260506194649 | 51 | 337 | 0.0 | 0.0 | 0.00 | 0.04 | 0.00 | 78 | 5006.6 |
| 20260506194149 | 51 | 0 | 0.0 | 0.0 | 0.00 | 0.04 | 0.00 | 77 | 5006.6 |
| 20260506193649 | 51 | 0 | 0.0 | 0.0 | 0.00 | 0.04 | 0.00 | 77 | 5006.7 |
| 20260506193149 | 51 | 337 | 0.0 | 0.0 | 0.00 | 0.04 | 0.00 | 76 | 5006.6 |
| 20260506192649 | 51 | 337 | 0.0 | 0.0 | 0.00 | 0.04 | 0.00 | 76 | 5006.5 |
| 20260506192149 | 51 | 337 | 0.0 | 0.0 | 0.00 | 0.04 | 0.00 | 75 | 5006.5 |
| 20260506191649 | 51 | 337 | 0.0 | 0.0 | 0.00 | 0.04 | 0.00 | 75 | 5006.3 |
| 20260506191149 | 51 | 337 | 0.0 | 0.0 | 0.00 | 0.04 | 0.00 | 75 | 5006.2 |
| 20260506190654 | 51 | 315 | 0.0 | 0.0 | 0.00 | 0.04 | 0.00 | 75 | 5006.2 |
| 20260506190649 | 51 | 315 | 0.0 | 0.0 | 0.00 | 0.04 | 0.00 | 75 | 5006.2 |
| 20260506190149 | 51 | 315 | 0.0 | 0.0 | 0.00 | 0.04 | 0.00 | 75 | 5006.1 |
| 20260506185649 | 52 | 315 | 0.0 | 0.0 | 0.00 | 0.08 | 0.00 | 75 | 5006.0 |
| 20260506185153 | 52 | 337 | 0.0 | 0.0 | 0.00 | 0.08 | 0.00 | 75 | 5005.9 |
| 20260506185149 | 52 | 337 | 0.0 | 0.0 | 0.00 | 0.08 | 0.00 | 75 | 5005.9 |
| 20260506184649 | 52 | 315 | 0.0 | 0.0 | 0.00 | 0.08 | 0.00 | 75 | 5005.9 |
| 20260506184149 | 52 | 315 | 0.0 | 0.0 | 0.00 | 0.08 | 0.00 | 75 | 5005.8 |
| 20260506183654 | 52 | 337 | 0.0 | 0.0 | 0.00 | 0.08 | 0.00 | 75 | 5005.7 |
| 20260506183649 | 52 | 337 | 0.0 | 0.0 | 0.00 | 0.08 | 0.00 | 75 | 5005.7 |
| 20260506183149 | 52 | 337 | 0.0 | 0.0 | 0.00 | 0.08 | 0.00 | 75 | 5005.7 |
| 20260506182649 | 52 | 0 | 0.0 | 0.0 | 0.00 | 0.08 | 0.00 | 74 | 5005.9 |
| 20260506182153 | 52 | 0 | 0.0 | 0.0 | 0.00 | 0.08 | 0.00 | 74 | 5005.6 |
| 20260506182149 | 52 | 0 | 0.0 | 0.0 | 0.00 | 0.08 | 0.00 | 74 | 5005.6 |
| 20260506181649 | 52 | 337 | 0.0 | 0.0 | 0.00 | 0.08 | 0.00 | 73 | 5005.5 |
| 20260506181149 | 52 | 337 | 0.0 | 0.0 | 0.00 | 0.08 | 0.00 | 73 | 5005.4 |
| 20260506180654 | 53 | 337 | 0.0 | 0.0 | 0.00 | 0.08 | 0.00 | 72 | 5005.3 |
| 20260506180649 | 53 | 337 | 0.0 | 0.0 | 0.00 | 0.08 | 0.00 | 72 | 5005.3 |
| 20260506180149 | 53 | 337 | 0.0 | 0.0 | 0.00 | 0.08 | 0.00 | 71 | 5005.3 |
| 20260506175649 | 53 | 0 | 0.0 | 0.0 | 0.00 | 0.14 | 0.00 | 71 | 5005.2 |
| 20260506175149 | 54 | 337 | 0.0 | 0.0 | 0.00 | 0.14 | 0.00 | 71 | 5005.1 |
| 20260506174649 | 54 | 337 | 0.0 | 0.0 | 0.00 | 0.14 | 0.00 | 71 | 5005.1 |
| 20260506174149 | 54 | 337 | 0.0 | 0.0 | 0.00 | 0.14 | 0.00 | 72 | 5005.1 |
| 20260506173649 | 54 | 0 | 0.0 | 0.0 | 0.00 | 0.14 | 0.00 | 72 | 5005.1 |
| 20260506173149 | 54 | 337 | 0.0 | 0.0 | 0.00 | 0.14 | 0.00 | 72 | 5005.1 |
| 20260506172649 | 55 | 0 | 0.0 | 0.0 | 0.00 | 0.14 | 0.00 | 71 | 5005.0 |
| 20260506172149 | 55 | 0 | 0.0 | 0.0 | 0.00 | 0.14 | 0.00 | 69 | 5005.0 |
| 20260506171649 | 56 | 337 | 0.0 | 0.0 | 0.00 | 0.14 | 0.00 | 69 | 5004.9 |
| 20260506171149 | 57 | 0 | 0.0 | 0.0 | 0.00 | 0.14 | 0.00 | 68 | 5004.9 |
| 20260506170649 | 57 | 315 | 0.0 | 0.0 | 0.00 | 0.14 | 0.00 | 68 | 5004.9 |
| 20260506170149 | 57 | 337 | 0.0 | 0.0 | 0.00 | 0.14 | 0.00 | 69 | 5004.9 |
| 20260506165649 | 57 | 0 | 0.0 | 0.0 | 0.00 | 0.14 | 0.00 | 71 | 5004.9 |
| 20260506165154 | 56 | 337 | 0.0 | 0.0 | 0.00 | 0.14 | 0.00 | 72 | 5004.8 |
| 20260506165149 | 56 | 337 | 0.0 | 0.0 | 0.00 | 0.14 | 0.00 | 72 | 5004.8 |
| 20260506164649 | 55 | 0 | 0.0 | 0.0 | 0.00 | 0.14 | 0.00 | 72 | 5004.8 |
| 20260506164149 | 54 | 0 | 0.0 | 0.0 | 0.00 | 0.14 | 0.00 | 73 | 5004.7 |
| 20260506163649 | 54 | 337 | 0.0 | 0.0 | 0.00 | 0.14 | 0.00 | 74 | 5004.7 |
| 20260506163149 | 54 | 0 | 0.0 | 0.0 | 0.00 | 0.14 | 0.00 | 74 | 5004.7 |
| 20260506162649 | 54 | 337 | 0.0 | 0.0 | 0.00 | 0.14 | 0.00 | 74 | 5004.8 |
| 20260506162149 | 54 | 337 | 0.0 | 0.0 | 0.00 | 0.14 | 0.00 | 75 | 5004.8 |
| 20260506161649 | 54 | 0 | 0.0 | 0.0 | 0.00 | 0.14 | 0.00 | 75 | 5004.8 |
| 20260506161149 | 54 | 0 | 0.0 | 0.0 | 0.00 | 0.14 | 0.00 | 76 | 5004.9 |
| 20260506160649 | 53 | 0 | 0.0 | 0.0 | 0.00 | 0.14 | 0.00 | 76 | 5004.9 |
| 20260506160149 | 53 | 0 | 0.0 | 0.0 | 0.00 | 0.14 | 0.00 | 76 | 5004.9 |
| 20260506155649 | 53 | 337 | 0.0 | 0.0 | 0.00 | 0.14 | 0.00 | 76 | 5004.9 |
| 20260506155154 | 54 | 315 | 0.0 | 0.0 | 0.00 | 0.14 | 0.00 | 75 | 5004.8 |
| 20260506155149 | 54 | 315 | 0.0 | 0.0 | 0.00 | 0.14 | 0.00 | 75 | 5004.8 |
| 20260506154649 | 54 | 22 | 0.0 | 0.0 | 0.00 | 0.14 | 0.00 | 75 | 5004.9 |
| 20260506154149 | 55 | 0 | 0.0 | 0.0 | 0.00 | 0.14 | 0.00 | 75 | 5004.8 |
| 20260506153649 | 55 | 337 | 0.0 | 0.0 | 0.00 | 0.14 | 0.00 | 74 | 5004.9 |
| 20260506153149 | 55 | 0 | 0.0 | 0.0 | 0.00 | 0.14 | 0.00 | 75 | 5004.9 |
| 20260506152649 | 55 | 0 | 0.0 | 0.0 | 0.00 | 0.14 | 0.00 | 75 | 5004.8 |
| 20260506152149 | 55 | 0 | 0.0 | 0.0 | 0.00 | 0.14 | 0.00 | 75 | 5004.8 |
| 20260506151649 | 55 | 337 | 0.0 | 0.0 | 0.00 | 0.14 | 0.00 | 75 | 5004.7 |
| 20260506151149 | 55 | 337 | 0.0 | 0.0 | 0.00 | 0.14 | 0.00 | 76 | 5004.6 |
| 20260506150654 | 54 | 315 | 0.0 | 0.0 | 0.00 | 0.14 | 0.00 | 77 | 5004.6 |
| 20260506150649 | 54 | 315 | 0.0 | 0.0 | 0.00 | 0.14 | 0.00 | 77 | 5004.6 |
| 20260506150149 | 54 | 337 | 0.0 | 0.0 | 0.00 | 0.14 | 0.00 | 76 | 5004.5 |
| 20260506145649 | 54 | 337 | 0.0 | 0.0 | 0.00 | 0.14 | 0.00 | 75 | 5004.5 |
| 20260506145149 | 55 | 337 | 0.0 | 0.0 | 0.00 | 0.14 | 0.00 | 75 | 5004.5 |
| 20260506144649 | 55 | 315 | 0.0 | 0.0 | 0.00 | 0.14 | 0.00 | 76 | 5004.5 |
| 20260506144149 | 54 | 337 | 0.0 | 0.0 | 0.00 | 0.14 | 0.00 | 77 | 5004.5 |
| 20260506143649 | 54 | 337 | 0.0 | 0.0 | 0.00 | 0.14 | 0.00 | 77 | 5004.4 |
| 20260506143149 | 54 | 337 | 0.0 | 0.0 | 0.00 | 0.14 | 0.00 | 77 | 5004.4 |
| 20260506142649 | 54 | 315 | 0.0 | 0.0 | 0.00 | 0.14 | 0.00 | 76 | 5004.3 |
| 20260506142149 | 55 | 337 | 0.0 | 0.0 | 0.00 | 0.14 | 0.00 | 76 | 5004.3 |
| 20260506141649 | 55 | 225 | 0.0 | 0.0 | 0.00 | 0.14 | 0.00 | 76 | 5004.3 |
| 20260506141149 | 55 | 292 | 0.0 | 0.0 | 0.00 | 0.14 | 0.00 | 75 | 5004.3 |
| 20260506140649 | 55 | 22 | 0.0 | 0.0 | 0.00 | 0.14 | 0.00 | 75 | 5004.2 |
| 20260506140149 | 55 | 337 | 0.0 | 0.0 | 0.00 | 0.14 | 0.00 | 73 | 5004.2 |
| 20260506135649 | 56 | 337 | 0.0 | 0.0 | 0.00 | 0.16 | 0.00 | 74 | 5004.0 |
| 20260506135149 | 56 | 337 | 0.0 | 0.0 | 0.00 | 0.16 | 0.00 | 74 | 5004.0 |
| 20260506134649 | 56 | 337 | 0.0 | 0.0 | 0.00 | 0.16 | 0.00 | 74 | 5004.0 |
| 20260506134149 | 56 | 337 | 0.0 | 0.0 | 0.00 | 0.16 | 0.00 | 75 | 5004.1 |
| 20260506133649 | 56 | 337 | 0.0 | 0.0 | 0.00 | 0.16 | 0.00 | 74 | 5004.1 |
| 20260506133149 | 56 | 337 | 0.0 | 0.0 | 0.00 | 0.16 | 0.00 | 74 | 5004.2 |
| 20260506132649 | 56 | 337 | 0.0 | 0.0 | 0.00 | 0.16 | 0.00 | 74 | 5004.2 |
| 20260506132149 | 56 | 315 | 0.0 | 0.0 | 0.00 | 0.16 | 0.00 | 75 | 5004.3 |
| 20260506131649 | 56 | 315 | 0.0 | 0.0 | 0.00 | 0.16 | 0.00 | 74 | 5004.2 |
| 20260506131149 | 57 | 45 | 0.0 | 0.0 | 0.00 | 0.16 | 0.00 | 74 | 5004.2 |
| 20260506130649 | 57 | 337 | 0.0 | 0.0 | 0.00 | 0.16 | 0.00 | 73 | 5004.1 |
| 20260506130149 | 57 | 337 | 0.0 | 0.0 | 0.00 | 0.16 | 0.00 | 74 | 5004.1 |
| 20260506125649 | 57 | 292 | 0.0 | 0.0 | 0.00 | 0.18 | 0.00 | 74 | 5004.1 |
| 20260506125149 | 57 | 315 | 0.0 | 0.0 | 0.00 | 0.18 | 0.00 | 73 | 5003.9 |
| 20260506124650 | 57 | 315 | 0.0 | 0.0 | 0.00 | 0.18 | 0.00 | 73 | 5003.9 |
| 20260506124150 | 57 | 337 | 0.0 | 0.0 | 0.00 | 0.18 | 0.00 | 73 | 5003.9 |
| 20260506123650 | 58 | 315 | 0.0 | 0.0 | 0.00 | 0.18 | 0.00 | 72 | 5003.9 |
| 20260506123150 | 58 | 337 | 0.0 | 0.0 | 0.00 | 0.18 | 0.00 | 73 | 5003.9 |
| 20260506122650 | 58 | 22 | 0.0 | 0.0 | 0.00 | 0.18 | 0.00 | 73 | 5003.8 |
| 20260506122150 | 58 | 315 | 0.0 | 0.0 | 0.00 | 0.18 | 0.00 | 73 | 5003.8 |
| 20260506121650 | 58 | 67 | 0.0 | 0.0 | 0.00 | 0.18 | 0.00 | 74 | 5003.8 |
| 20260506121150 | 58 | 315 | 0.0 | 0.0 | 0.00 | 0.18 | 0.00 | 74 | 5003.7 |
| 20260506120653 | 58 | 22 | 0.0 | 0.0 | 0.00 | 0.18 | 0.00 | 75 | 5003.5 |
| 20260506120650 | 58 | 22 | 0.0 | 0.0 | 0.00 | 0.18 | 0.00 | 75 | 5003.5 |
| 20260506120150 | 58 | 292 | 0.0 | 0.0 | 0.00 | 0.18 | 0.00 | 76 | 5003.6 |
| 20260506115650 | 57 | 315 | 0.0 | 0.0 | 0.00 | 0.20 | 0.00 | 77 | 5003.6 |
| 20260506115150 | 57 | 315 | 0.0 | 0.0 | 0.00 | 0.20 | 0.00 | 78 | 5003.6 |
| 20260506114650 | 56 | 315 | 0.0 | 0.0 | 0.00 | 0.20 | 0.00 | 78 | 5003.7 |
| 20260506114150 | 55 | 292 | 0.0 | 0.0 | 0.00 | 0.20 | 0.00 | 79 | 5003.8 |
| 20260506113650 | 55 | 315 | 0.0 | 0.0 | 0.00 | 0.20 | 0.00 | 79 | 5003.7 |
| 20260506113150 | 56 | 22 | 0.0 | 0.0 | 0.00 | 0.20 | 0.00 | 79 | 5003.7 |
| 20260506112650 | 56 | 292 | 0.0 | 0.0 | 0.00 | 0.20 | 0.00 | 79 | 5003.7 |
| 20260506112150 | 56 | 337 | 0.0 | 0.0 | 0.00 | 0.20 | 0.00 | 79 | 5003.5 |
| 20260506111650 | 56 | 315 | 0.0 | 0.0 | 0.00 | 0.20 | 0.00 | 79 | 5003.4 |
| 20260506111150 | 56 | 315 | 0.0 | 0.0 | 0.00 | 0.20 | 0.00 | 79 | 5003.4 |
| 20260506110650 | 57 | 22 | 0.0 | 0.0 | 0.00 | 0.20 | 0.00 | 78 | 5003.3 |
| 20260506110150 | 57 | 0 | 0.0 | 0.0 | 0.00 | 0.20 | 0.00 | 79 | 5003.3 |
| 20260506105650 | 57 | 337 | 0.0 | 0.0 | 0.00 | 0.22 | 0.00 | 79 | 5003.3 |
| 20260506105150 | 58 | 337 | 0.0 | 0.0 | 0.00 | 0.22 | 0.00 | 78 | 5003.3 |
| 20260506104650 | 58 | 337 | 0.0 | 0.0 | 0.00 | 0.22 | 0.00 | 77 | 5003.4 |
| 20260506104150 | 59 | 315 | 0.0 | 0.0 | 0.00 | 0.22 | 0.00 | 78 | 5003.4 |
| 20260506103650 | 59 | 270 | 0.0 | 0.0 | 0.00 | 0.22 | 0.00 | 80 | 5003.2 |
| 20260506103150 | 58 | 292 | 0.0 | 0.0 | 0.00 | 0.22 | 0.00 | 79 | 5003.0 |
| 20260506102650 | 58 | 315 | 0.0 | 0.0 | 0.00 | 0.22 | 0.00 | 79 | 5003.0 |
| 20260506102150 | 58 | 315 | 0.0 | 0.0 | 0.00 | 0.22 | 0.00 | 79 | 5003.1 |
| 20260506101650 | 59 | 315 | 0.0 | 0.0 | 0.00 | 0.22 | 0.00 | 79 | 5003.0 |
| 20260506101150 | 59 | 315 | 0.0 | 0.0 | 0.00 | 0.22 | 0.00 | 80 | 5003.0 |
| 20260506100650 | 59 | 337 | 0.0 | 0.0 | 0.02 | 0.22 | 0.00 | 81 | 5002.8 |
| 20260506100150 | 58 | 315 | 0.0 | 0.0 | 0.02 | 0.22 | 0.00 | 83 | 5003.0 |
| 20260506095650 | 57 | 292 | 0.0 | 0.0 | 0.02 | 0.22 | 0.00 | 84 | 5002.9 |
| 20260506095150 | 57 | 315 | 0.0 | 0.0 | 0.02 | 0.22 | 0.00 | 86 | 5002.9 |
| 20260506094650 | 56 | 315 | 0.0 | 0.0 | 0.02 | 0.22 | 0.00 | 88 | 5002.8 |
| 20260506094152 | 55 | 292 | 0.0 | 0.0 | 0.02 | 0.22 | 0.00 | 88 | 5002.8 |
| 20260506093650 | 55 | 315 | 0.0 | 0.0 | 0.02 | 0.22 | 0.00 | 89 | 5002.9 |
| 20260506093150 | 54 | 315 | 0.0 | 0.0 | 0.02 | 0.22 | 0.00 | 89 | 5002.8 |
| 20260506092650 | 54 | 315 | 0.0 | 0.0 | 0.02 | 0.22 | 0.00 | 88 | 5002.8 |
| 20260506092150 | 54 | 315 | 0.0 | 0.0 | 0.02 | 0.22 | 0.00 | 87 | 5002.9 |
| 20260506091650 | 54 | 292 | 0.0 | 0.0 | 0.02 | 0.22 | 0.00 | 86 | 5002.9 |
| 20260506091150 | 55 | 292 | 0.0 | 0.0 | 0.00 | 0.20 | 0.00 | 85 | 5002.9 |
| 20260506090650 | 55 | 292 | 0.0 | 0.0 | 0.00 | 0.20 | 0.00 | 85 | 5002.7 |
| 20260506090150 | 57 | 292 | 0.0 | 0.0 | 0.00 | 0.20 | 0.00 | 83 | 5002.8 |
| 20260506085650 | 58 | 292 | 0.0 | 0.0 | 0.00 | 0.20 | 0.00 | 83 | 5002.7 |
| 20260506085150 | 58 | 180 | 0.0 | 0.0 | 0.00 | 0.20 | 0.00 | 84 | 5002.6 |
| 20260506084650 | 58 | 157 | 0.0 | 0.0 | 0.00 | 0.20 | 0.00 | 84 | 5002.6 |
| 20260506084150 | 58 | 180 | 0.0 | 0.0 | 0.00 | 0.20 | 0.00 | 86 | 5002.5 |
| 20260506083650 | 57 | 135 | 0.0 | 0.0 | 0.00 | 0.20 | 0.00 | 86 | 5002.5 |
| 20260506083150 | 56 | 180 | 0.0 | 0.0 | 0.00 | 0.20 | 0.00 | 85 | 5002.6 |
| 20260506082650 | 57 | 180 | 0.0 | 0.0 | 0.00 | 0.20 | 0.00 | 86 | 5002.6 |
| 20260506082150 | 56 | 180 | 0.0 | 0.0 | 0.00 | 0.20 | 0.00 | 85 | 5002.6 |
| 20260506081650 | 57 | 202 | 0.0 | 0.0 | 0.00 | 0.20 | 0.00 | 86 | 5002.6 |
| 20260506081150 | 57 | 157 | 0.0 | 0.0 | 0.00 | 0.20 | 0.00 | 87 | 5002.4 |
| 20260506080650 | 56 | 157 | 0.0 | 0.0 | 0.00 | 0.20 | 0.00 | 87 | 5002.3 |
| 20260506080150 | 56 | 157 | 0.0 | 0.0 | 0.00 | 0.20 | 0.00 | 88 | 5002.4 |
| 20260506073150 | 53 | 180 | 0.0 | 0.0 | 0.00 | 0.20 | 0.00 | 93 | 5002.5 |
| 20260506072650 | 52 | 202 | 0.0 | 0.0 | 0.00 | 0.20 | 0.00 | 93 | 5002.6 |
| 20260506072157 | 52 | 180 | 0.0 | 0.0 | 0.00 | 0.20 | 0.00 | 93 | 5002.6 |
| 20260506072150 | 52 | 180 | 0.0 | 0.0 | 0.00 | 0.20 | 0.00 | 93 | 5002.6 |
| 20260506071650 | 52 | 180 | 0.0 | 0.0 | 0.00 | 0.20 | 0.00 | 93 | 5002.5 |
| 20260506071150 | 52 | 202 | 0.0 | 0.0 | 0.00 | 0.20 | 0.00 | 93 | 5002.6 |
| 20260506070650 | 52 | 180 | 0.0 | 0.0 | 0.00 | 0.20 | 0.00 | 93 | 5002.6 |
| 20260506070150 | 52 | 202 | 0.0 | 0.0 | 0.00 | 0.20 | 0.00 | 93 | 5002.5 |